Retour au catalogue

ONEWEB-0308

ActifCommunicationsPO
NORAD 49094·PAYLOAD·🇬🇧 United Kingdom

Lancé Aug 21, 2021 depuis Baikonur Cosmodrome

Loading…

Prochains Passages (prochaines 24 heures)

TLE

FraisSource: CelesTrak SupGP

Époque: Sep 14, 2026, 23:01 UTC

1 49094C 21075V   26257.95919399 -.00000068  00000+0 -18832-3 0  2574
2 49094  87.8997 332.8413 0001891  99.8418 296.5471 13.12446011    16

Suivez ONEWEB-0308 en temps réel avec AllMySat

Download on the App Store